FlightSource - Aviation Photo Database

World Wide Airport Lookup


Search by ICAO
Or
Search by City

FlightSource.ca - Aviation Photo Database - Las Vegas Municipal Airport Information
Airport Identification
Name: Las Vegas Municipal Airport
ICAO: KLVS
IATA:
Airport Location
City: Las Vegas
Region: NM
Country: United States
Continent: North America
Latitude: 35.6542
Longitude: -105.142
Airport Information
Type: Medium Airport
Elevation: 6877 Feet ASL
Flight Status: KLVS
More Info: KLVS
Airport Weather    
Metar: KLVS 190353Z AUTO 24019G27KT 10SM CLR 08/M04 A2976 RMK AO2 PK WND 23033/0336 SLP014 T00831039
TAF:


Advertisement